User: anonymous   Login
Location: Brunembert
(50.7122°N, 1.8935°E)
Time: 04:05:19
(UTC+00:00)
Language:

Cosmos 2263 Rocket - Orbit

View from above orbital plane
View from above orbital plane
View from above satellite
View from above satellite

Ground track
Ground track

The orbit data is extracted from the following two-line orbital elements,

1 22803U 93059B   21164.88038844  .00000232  00000-0  13970-3 0  9998
2 22803  70.9913  57.5841 0018539 320.0533  39.9226 14.16836986434495
Epoch (UTC): 13 June 2021 21:07:45
Eccentricity: 0.0018539
inclination: 70.9913°
perigee height: 822 km
apogee height: 849 km
right ascension of ascending node: 57.5841°
argument of perigee: 320.0533°
revolutions per day: 14.16836986
mean anomaly at epoch: 39.9226°
orbit number at epoch: 43449

The dashed part of the orbit path shows where the satellite is in the earth's shadow,  

DLR